Date String (YYYY-MM-DD hh:mm:ss) UTC,Instrument flags,absolute air pressure of the measurement (hPa),sample flow rate (lpm),inlet stack bypass flow (lpm),air temperature of the measurement (°C),ambient temperature measured by the external sensor (°C),aerosol sample conditioner tube jacket temperature (°C),OPC LED temperature (°C),internal box temperature (°C),relative humidity of the measurement (%),span deviation,mass concentration of particles derived from Lorenz-Mie calculation of OPC scattering (μg/m³),mass concentration of particles derived from Lorenz-Mie calculation of OPC scattering (μg/m³),mass concentration of particles derived from Lorenz-Mie calculation of OPC scattering (μg/m³)
DateTimeUTC,F1_M11,P_M11,Q1_M11,Q2_M11,T1_M11,T2_M11,T3_M11,T4_M11,T5_M11,U1_M11,ZSPAN_M11,X2_M11,X0_M11,X1_M11
2024-04-28 22:00:00,SystemResetWarning,0823.3,5.00,000.00,025.1,024.4,000.0,033.4,026.9,018.5,0000.0,0001.96,0003.38,0001.62
2024-04-28 22:01:00,SystemResetWarning,0823.2,5.00,000.00,025.1,024.4,000.0,033.4,026.9,018.0,0000.0,0001.94,0003.94,0001.58
2024-04-28 22:02:00,SystemResetWarning,0823.2,5.01,000.00,025.1,024.4,000.0,033.4,026.9,017.2,0000.0,0001.88,0003.85,0001.53
2024-04-28 22:03:00,SystemResetWarning,0823.2,5.00,000.00,025.1,024.5,000.0,033.4,026.9,017.4,0000.0,0001.82,0003.78,0001.48
2024-04-28 22:04:00,SystemResetWarning,0823.3,5.00,000.00,025.1,024.5,000.0,033.4,026.9,017.1,0000.0,0001.78,0003.74,0001.43
2024-04-28 22:05:00,SystemResetWarning,0823.2,5.00,000.00,025.1,024.5,000.0,033.4,027.0,018.1,0000.0,0001.71,0003.60,0001.39
2024-04-28 22:06:00,SystemResetWarning,0823.1,4.99,000.00,025.2,024.5,000.0,033.5,027.0,017.7,0000.0,0001.63,0003.49,0001.33
2024-04-28 22:07:00,SystemResetWarning,0823.1,4.99,000.00,025.2,024.5,000.0,033.5,027.0,016.8,0000.0,0001.61,0003.50,0001.31
2024-04-28 22:08:00,SystemResetWarning,0823.2,5.00,000.00,025.2,024.6,000.0,033.5,027.0,017.0,0000.0,0001.57,0003.42,0001.27
2024-04-28 22:09:00,SystemResetWarning,0823.3,5.00,000.00,025.2,024.6,000.0,033.5,027.1,017.3,0000.0,0001.53,0003.41,0001.24
2024-04-28 22:10:00,SystemResetWarning,0823.1,5.01,000.00,025.2,024.6,000.0,033.5,027.1,017.7,0000.0,0001.52,0003.45,0001.22
2024-04-28 22:11:00,SystemResetWarning,0823.1,5.00,000.00,025.2,024.6,000.0,033.5,027.1,017.3,0000.0,0001.54,0003.12,0001.21
2024-04-28 22:12:00,SystemResetWarning,0823.1,4.99,000.00,025.3,024.6,000.0,033.6,027.1,017.5,0000.0,0001.51,0002.18,0001.21
2024-04-28 22:13:00,SystemResetWarning,0823.1,4.99,000.00,025.3,024.6,000.0,033.6,027.1,017.0,0000.0,0001.52,0002.21,0001.21
2024-04-28 22:14:00,SystemResetWarning,0823.1,5.00,000.00,025.3,024.7,000.0,033.6,027.1,017.1,0000.0,0001.52,0002.21,0001.21
2024-04-28 22:15:00,SystemResetWarning,0823.1,5.00,000.00,025.3,024.7,000.0,033.6,027.1,017.0,0000.0,0001.51,0002.20,0001.21
2024-04-28 22:16:00,SystemResetWarning,0823.1,5.01,000.00,025.3,024.7,000.0,033.6,027.2,017.5,0000.0,0001.49,0002.15,0001.20
2024-04-28 22:17:00,SystemResetWarning,0823.1,5.01,000.00,025.4,024.7,000.0,033.7,027.2,017.3,0000.0,0001.48,0002.17,0001.19
2024-04-28 22:18:00,SystemResetWarning,0823.1,5.00,000.00,025.4,024.7,000.0,033.7,027.2,016.8,0000.0,0001.48,0002.18,0001.18
2024-04-28 22:19:00,SystemResetWarning,0823.2,5.00,000.00,025.4,024.7,000.0,033.7,027.2,017.0,0000.0,0001.49,0002.20,0001.19
2024-04-28 22:20:00,SystemResetWarning,0823.2,5.00,000.00,025.4,024.7,000.0,033.7,027.2,018.2,0000.0,0001.49,0002.17,0001.18
2024-04-28 22:21:00,SystemResetWarning,0823.1,4.99,000.00,025.4,024.7,000.0,033.7,027.2,019.0,0000.0,0001.45,0002.09,0001.17
2024-04-28 22:22:00,SystemResetWarning,0823.0,5.00,000.00,025.4,024.7,000.0,033.7,027.2,019.3,0000.0,0001.44,0002.04,0001.18
2024-04-28 22:23:00,SystemResetWarning,0823.1,4.99,000.00,025.4,024.8,000.0,033.7,027.2,020.3,0000.0,0001.48,0002.80,0001.20
2024-04-28 22:24:00,SystemResetWarning,0823.2,5.00,000.00,025.5,024.8,000.0,033.8,027.3,020.6,0000.0,0001.52,0002.85,0001.22
2024-04-28 22:25:00,SystemResetWarning,0823.1,5.01,000.00,025.5,024.8,000.0,033.8,027.2,020.5,0000.0,0001.55,0002.97,0001.25
2024-04-28 22:26:00,SystemResetWarning,0823.1,5.00,000.00,025.5,024.8,000.0,033.8,027.3,020.3,0000.0,0001.60,0003.25,0001.29
2024-04-28 22:27:00,SystemResetWarning,0823.1,5.00,000.00,025.5,024.8,000.0,033.8,027.3,020.3,0000.0,0001.66,0004.18,0001.36
2024-04-28 22:28:00,SystemResetWarning,0823.2,5.00,000.00,025.5,024.8,000.0,033.8,027.3,020.3,0000.0,0001.70,0004.28,0001.41
2024-04-28 22:29:00,SystemResetWarning,0823.2,5.00,000.00,025.5,024.8,000.0,033.8,027.3,019.0,0000.0,0001.79,0004.39,0001.48
2024-04-28 22:30:00,SystemResetWarning,0823.2,5.00,000.00,025.5,024.8,000.0,033.8,027.3,019.2,0000.0,0001.88,0004.55,0001.53
2024-04-28 22:31:00,SystemResetWarning,0823.2,4.99,000.00,025.5,024.8,000.0,033.9,027.3,020.3,0000.0,0001.95,0004.65,0001.57
2024-04-28 22:32:00,SystemResetWarning,0823.2,4.99,000.00,025.5,024.9,000.0,033.9,027.4,019.9,0000.0,0002.02,0005.03,0001.62
2024-04-28 22:33:00,SystemResetWarning,0823.2,4.99,000.00,025.6,024.9,000.0,033.9,027.4,019.7,0000.0,0002.05,0005.08,0001.66
2024-04-28 22:34:00,SystemResetWarning,0823.2,5.00,000.00,025.6,024.9,000.0,033.9,027.4,019.8,0000.0,0002.03,0004.52,0001.68
2024-04-28 22:35:00,SystemResetWarning,0823.1,5.00,000.00,025.6,024.9,000.0,033.9,027.4,019.3,0000.0,0002.04,0004.34,0001.68
2024-04-28 22:36:00,SystemResetWarning,0823.3,5.00,000.00,025.6,024.9,000.0,033.9,027.4,018.8,0000.0,0002.07,0004.40,0001.69
2024-04-28 22:37:00,SystemResetWarning,0823.1,5.01,000.00,025.6,024.9,000.0,033.9,027.4,018.7,0000.0,0002.10,0004.52,0001.68
2024-04-28 22:38:00,SystemResetWarning,0823.1,5.00,000.00,025.6,025.0,000.0,034.0,027.5,019.4,0000.0,0002.09,0003.56,0001.65
2024-04-28 22:39:00,SystemResetWarning,0823.1,5.01,000.00,025.7,025.0,000.0,034.0,027.5,019.1,0000.0,0002.11,0003.37,0001.64
2024-04-28 22:40:00,SystemResetWarning,0823.1,5.01,000.00,025.7,025.0,000.0,034.0,027.5,019.1,0000.0,0002.09,0003.36,0001.62
2024-04-28 22:41:00,SystemResetWarning,0823.1,5.00,000.00,025.7,025.0,000.0,034.0,027.5,019.3,0000.0,0002.04,0003.27,0001.59
2024-04-28 22:42:00,SystemResetWarning,0823.2,5.00,000.00,025.7,025.0,000.0,034.0,027.5,019.6,0000.0,0001.97,0003.14,0001.57
2024-04-28 22:43:00,SystemResetWarning,0823.2,5.00,000.00,025.7,025.1,000.0,034.0,027.5,019.0,0000.0,0001.96,0002.86,0001.57
2024-04-28 22:44:00,SystemResetWarning,0823.2,5.00,000.00,025.7,025.1,000.0,034.0,027.5,018.6,0000.0,0001.98,0002.85,0001.56
2024-04-28 22:45:00,SystemResetWarning,0823.1,5.00,000.00,025.8,025.1,000.0,034.1,027.6,018.6,0000.0,0002.00,0003.49,0001.55
2024-04-28 22:46:00,SystemResetWarning,0823.1,4.99,000.00,025.8,025.1,000.0,034.1,027.6,018.9,0000.0,0001.98,0003.66,0001.54
2024-04-28 22:47:00,SystemResetWarning,0823.0,5.00,000.00,025.8,025.1,000.0,034.1,027.6,018.6,0000.0,0001.99,0003.63,0001.55
2024-04-28 22:48:00,SystemResetWarning,0823.1,4.99,000.00,025.8,025.1,000.0,034.1,027.6,017.8,0000.0,0001.93,0003.48,0001.54
2024-04-28 22:49:00,SystemResetWarning,0823.1,5.00,000.00,025.8,025.2,000.0,034.1,027.6,018.0,0000.0,0001.89,0003.41,0001.53
2024-04-28 22:50:00,SystemResetWarning,0823.1,5.02,000.00,025.8,025.2,000.0,034.1,027.6,017.9,0000.0,0001.87,0003.42,0001.52
2024-04-28 22:51:00,SystemResetWarning,0823.0,4.99,000.00,025.8,025.2,000.0,034.2,027.7,017.5,0000.0,0001.89,0003.51,0001.51
2024-04-28 22:52:00,SystemResetWarning,0823.0,4.99,000.00,025.9,025.2,000.0,034.2,027.7,017.6,0000.0,0001.88,0003.61,0001.50
2024-04-28 22:53:00,SystemResetWarning,0823.0,4.99,000.00,025.9,025.2,000.0,034.2,027.7,018.2,0000.0,0001.86,0004.98,0001.49
2024-04-28 22:54:00,SystemResetWarning,0823.0,5.00,000.00,025.9,025.2,000.0,034.2,027.7,017.6,0000.0,0001.84,0004.94,0001.48
2024-04-28 22:55:00,SystemResetWarning,0823.0,5.01,000.00,025.9,025.3,000.0,034.2,027.7,016.8,0000.0,0001.77,0004.81,0001.46
2024-04-28 22:56:00,SystemResetWarning,0823.0,5.00,000.00,025.9,025.3,000.0,034.2,027.7,017.2,0000.0,0001.71,0004.41,0001.44
2024-04-28 22:57:00,SystemResetWarning,0823.0,4.99,000.00,025.9,025.3,000.0,034.3,027.8,018.0,0000.0,0001.71,0003.92,0001.43
2024-04-28 22:58:00,SystemResetWarning,0823.0,4.99,000.00,026.0,025.3,000.0,034.3,027.8,018.8,0000.0,0001.66,0003.79,0001.42
2024-04-28 22:59:00,SystemResetWarning,0823.0,5.00,000.00,026.0,025.3,000.0,034.3,027.8,017.7,0000.0,0001.64,0003.75,0001.42
